Погода в Кабардинской

Россия / Краснодарский край     44°29′42″N   39°29′36″E
темп.,
°C
ветер,
м/с
пор.,
м/с
влажн.,
%
обл.,
%
осадки,
мм/ч
давл.,
гПа
погр.,
м
26 июля, пн
пн2600:00+20в12765 0.0 101432
03:00+17с01842 0.0 101413
06:00+18юз00910 0.0 101424
09:00+25с12631 0.0 1014580
12:00+31всв34450 0.0 10131572
15:00+32всв66369 0.0 10112010
18:00+29всв594459 0.0 10121494
21:00+24всв4125537 0.0 1012563
27 июля, вт
вт2700:00+20всв1379100 0.3 101364
03:00+17зсз0194100 1.0 101317
06:00+17зсз1198100 1.8 101451
09:00+20всв2490100 1.8 1015376
12:00+21в61074100 0.0 1016787
15:00+19всв5128197 0.1 1016748
18:00+19всв6147550 0.0 1016868
21:00+18в8167062 0.0 10171146
28 июля, ср
ср2800:00+18в615624 0.0 1016878
03:00+18всв515651 0.0 1016855
06:00+17всв413700 0.0 1017693
09:00+23всв615490 0.0 10161354
12:00+26всв714370 0.0 10151858
15:00+27всв712360 0.0 10151865
18:00+24всв613430 0.0 10151431
21:00+21в414550 0.0 1015653
29 июля, чт
чт2900:00+17всв22670 0.0 101413
03:00+14вюв01780 0.0 101411
06:00+14ссз00850 0.0 101511
09:00+24всв37460 0.0 1014806
12:00+29всв46350 0.0 10131666
15:00+31св45300 0.0 10122061
18:00+28всв47390 0.0 1011667
21:00+20вюв22650 0.0 101213
30 июля, пт
пт3000:00+17ююв11780 0.0 101211
03:00+16ююз11850 0.0 101211
06:00+17ю11830 0.0 101213
09:00+26ссв11500 0.0 1012517
12:00+30с12390 0.0 10111445
15:00+32св13340 0.0 10102129
18:00+29всв37320 0.0 1009425
21:00+21вюв22500 0.0 101011